Wind_Speed
17 17 18 18 19 19 18 17 17 17 18 18 18 18 18 18 18 18 18 18 18 18 17 17 17 17 16 17 17 17 15 15 15 15 15 15 14 13 12 12 11 10 10 9 9 8 8 8 7
18 18 19 20 20 20 18 18 19 19 19 20 20 20 20 20 20 20 20 20 20 20 20 19 19 19 19 19 18 19 18 17 17 17 16 16 15 15 14 13 13 12 11 11 11 10 9 8 8
19 19 20 21 21 20 20 20 20 21 21 21 21 21 22 22 21 21 22 22 22 22 22 21 21 21 21 21 20 20 20 19 19 18 18 17 16 17 16 15 14 13 13 12 12 11 11 10 9
19 20 21 22 22 22 22 22 22 23 23 23 24 23 23 23 23 23 23 23 24 23 23 23 23 23 23 23 22 22 22 22 21 21 20 19 19 18 18 17 16 15 15 14 13 13 12 11 11
21 21 22 22 22 23 23 23 24 25 25 25 25 25 25 25 25 24 24 25 25 25 25 25 25 25 25 25 25 24 24 24 24 23 22 21 21 20 19 18 18 17 16 16 15 14 14 13 12
22 22 23 23 23 24 25 25 26 26 27 27 27 27 27 27 26 26 25 26 26 26 27 27 27 27 27 28 27 26 26 26 26 25 25 24 22 22 21 20 19 19 18 17 16 16 15 14 14
23 24 24 25 25 25 26 27 27 28 28 28 28 28 28 28 28 28 27 27 27 27 28 29 29 29 29 30 30 29 29 28 28 27 26 25 25 24 23 22 22 20 20 19 18 16 16 16 15
24 25 25 26 26 27 27 28 28 28 28 29 29 29 29 29 29 29 29 28 29 28 28 29 30 30 30 31 31 31 31 30 30 29 28 27 26 26 25 24 24 23 22 21 20 19 17 17 17
25 26 26 27 28 28 29 29 29 29 29 30 30 30 30 31 30 31 31 30 30 30 29 30 31 31 31 31 32 33 33 32 32 31 31 29 28 28 27 26 25 25 24 22 21 21 20 19 19
27 27 27 28 29 30 30 31 31 31 31 31 32 32 32 32 32 32 32 32 31 31 31 32 32 32 33 33 33 33 34 34 34 33 33 32 31 30 29 28 27 26 25 24 23 22 21 21 20
28 29 29 29 30 31 32 32 33 33 33 33 34 34 34 34 34 33 33 33 33 33 33 33 34 34 34 34 34 34 34 35 35 35 35 34 33 32 31 30 29 28 26 25 24 23 23 22 21
30 30 30 31 31 32 33 34 34 35 35 35 36 35 35 36 35 35 35 35 35 36 35 35 35 35 36 35 35 35 35 35 36 36 36 36 35 33 33 32 31 29 28 27 26 26 25 23 22
31 31 31 32 33 34 35 35 35 34 35 36 37 36 36 37 37 37 36 37 37 37 37 36 36 37 37 37 37 37 36 37 38 38 37 37 37 35 34 33 32 31 30 29 28 28 27 25 24
32 33 33 34 35 36 36 36 35 34 35 36 37 37 37 38 38 38 38 38 39 38 38 37 37 37 38 39 39 39 38 38 40 40 39 39 38 37 36 35 33 32 32 31 30 30 28 27 26
33 34 34 35 36 37 37 36 35 35 36 37 37 37 36 37 38 39 39 39 40 40 39 39 38 38 39 39 40 39 39 39 40 41 41 40 40 39 38 37 36 35 34 33 32 32 31 30 29
34 34 35 36 37 36 37 36 35 35 36 36 37 37 36 37 38 39 39 39 40 41 40 40 39 39 40 40 40 39 39 39 40 41 42 42 41 41 40 39 38 37 36 35 34 33 32 31 31
33 34 35 36 36 36 37 37 36 37 36 37 37 37 37 38 38 39 40 40 40 40 41 41 41 40 40 41 40 40 40 40 40 41 41 42 42 42 41 40 39 38 37 35 35 35 34 33 32
33 35 36 36 35 36 37 37 36 37 37 37 37 37 37 38 39 39 40 40 40 41 40 40 40 40 41 41 41 41 40 41 41 42 42 42 43 43 42 41 40 39 38 37 37 36 35 35 34
34 35 36 36 36 36 36 37 36 37 37 37 37 37 37 38 39 39 39 40 41 42 40 40 40 40 41 41 41 41 41 42 42 42 43 44 43 43 43 42 41 41 40 39 39 38 37 36 36
34 35 35 35 35 36 36 36 36 36 36 36 36 36 37 38 38 39 39 40 41 41 41 40 40 40 41 41 42 42 42 43 44 43 43 44 45 45 44 44 43 42 42 41 40 39 39 38 38
34 35 35 34 33 34 35 35 35 35 35 34 34 35 37 37 38 38 39 39 41 41 41 40 40 40 42 42 42 43 43 43 44 45 44 45 45 45 45 45 44 44 43 43 42 41 40 40 39
34 34 34 33 32 32 33 35 32 32 33 33 33 34 35 36 37 37 38 38 39 40 40 39 40 41 42 42 42 42 43 44 44 45 45 46 46 47 46 45 46 45 44 43 44 43 41 41 40
34 34 33 32 32 32 32 34 31 31 32 32 33 33 34 35 35 36 36 37 38 39 40 40 40 40 41 42 42 42 42 44 45 47 47 47 47 48 48 46 46 46 45 45 44 43 43 41 40
34 33 33 32 32 32 30 32 31 31 31 32 32 32 33 34 34 35 36 35 36 38 38 40 40 41 41 42 43 44 43 44 45 47 48 48 49 49 49 48 47 47 47 46 46 45 44 44 43
32 32 32 33 32 31 30 31 30 31 31 31 32 32 32 33 34 34 34 34 34 35 37 39 40 40 40 42 42 44 43 44 45 46 48 49 50 50 50 51 50 49 49 48 48 47 46 46 45
31 31 32 33 33 32 31 31 30 30 31 31 31 31 32 32 33 32 32 33 33 34 36 38 39 40 40 41 41 43 43 45 46 46 47 48 49 50 51 51 52 51 50 50 50 49 48 48 47
30 30 32 34 34 34 32 31 30 30 31 30 30 30 31 32 32 32 31 32 32 33 35 36 38 39 40 40 41 41 42 45 46 47 48 48 48 49 51 51 51 52 52 51 51 50 51 49 49
30 30 31 32 34 34 33 31 30 30 31 31 30 30 30 31 30 31 31 31 31 33 34 36 37 38 39 40 40 41 42 44 47 48 49 49 49 50 50 51 51 52 53 52 51 50 50 50 49
30 30 30 32 33 34 34 31 30 31 31 32 31 30 31 30 31 31 31 32 32 33 34 36 37 37 39 40 40 41 42 44 46 48 48 49 50 50 50 50 50 51 52 53 52 52 52 50 50
31 30 30 31 32 33 34 32 31 31 31 32 32 31 31 31 31 31 32 32 33 34 34 35 36 37 38 40 40 41 41 43 45 46 46 47 49 50 51 50 50 50 51 53 53 52 52 52 51
Wind_Direction
259 261 262 262 262 261 262 262 261 260 260 260 260 260 260 260 259 260 259 258 257 256 254 252 251 250 250 249 247 246 246 246 246 245 242 240 239 237 234 235 234 233 233 232 233 230 224 219 214
261 262 263 263 263 263 264 264 261 260 261 262 261 261 261 261 261 261 261 260 260 258 256 254 252 250 249 249 246 247 247 246 247 246 243 241 238 235 235 237 237 236 237 236 234 231 228 224 220
263 263 263 263 264 265 266 263 262 261 261 261 262 262 262 262 262 262 261 261 261 259 257 255 252 251 249 248 247 246 246 246 246 247 244 242 239 237 236 238 238 238 239 239 237 233 229 227 225
264 264 265 265 266 266 266 264 263 261 260 260 261 262 263 263 263 263 262 261 260 259 258 257 255 252 249 248 247 246 246 245 245 245 244 242 239 238 238 238 239 240 241 240 237 235 232 230 228
266 266 266 267 267 267 267 266 265 263 261 260 260 261 262 263 263 262 260 259 258 258 258 256 254 252 249 248 247 246 246 245 245 244 243 242 240 239 239 240 241 242 242 241 239 238 235 233 231
268 268 268 269 269 268 268 267 265 264 263 261 261 261 261 262 262 262 261 260 258 257 257 256 254 252 249 248 246 246 245 245 244 243 242 241 240 239 240 240 241 242 241 241 239 238 234 233 233
271 271 270 271 271 270 269 269 267 266 264 263 263 262 261 261 260 260 261 261 260 258 257 256 255 252 249 248 246 245 245 244 243 242 242 241 240 240 240 241 241 243 243 241 238 239 236 234 234
274 274 273 273 273 271 270 268 267 266 264 263 262 261 260 260 261 261 261 261 261 259 257 256 255 252 249 248 245 244 243 243 242 241 241 241 241 241 241 241 242 243 244 244 240 238 237 237 235
276 276 276 276 274 272 270 268 266 266 265 263 262 261 260 259 260 260 260 260 260 260 258 256 256 253 250 248 246 244 243 242 241 240 240 240 240 240 241 241 242 244 244 244 242 239 238 238 237
278 278 278 277 276 274 272 270 268 267 266 264 263 262 261 260 260 260 260 260 259 258 258 257 256 254 251 249 248 246 243 242 241 239 238 238 238 238 241 242 242 243 244 244 243 240 239 239 239
280 280 279 278 277 276 274 271 269 267 266 266 264 263 261 261 261 261 260 259 259 258 257 257 255 253 251 250 249 248 245 243 241 239 238 238 238 239 240 241 242 242 243 244 243 241 240 239 239
281 280 280 279 278 277 275 272 269 268 267 266 264 262 261 261 261 261 260 259 258 258 257 256 255 253 251 250 249 248 246 244 241 239 239 238 237 238 239 240 241 241 242 243 243 242 241 239 240
281 280 280 278 278 277 276 273 270 269 267 266 264 263 261 260 260 259 259 258 258 257 257 256 254 253 251 249 248 248 247 245 242 239 238 237 237 236 238 239 240 240 241 242 243 243 242 240 240
281 280 279 278 278 277 276 273 271 269 267 265 264 263 262 261 260 259 257 256 256 255 255 254 254 252 251 249 248 248 247 245 242 239 237 237 236 236 236 237 238 239 240 241 242 242 242 241 240
280 279 278 278 278 277 275 271 271 269 267 265 264 263 262 262 261 260 259 257 256 254 254 254 254 253 252 250 247 247 246 245 243 240 237 236 236 236 237 237 237 238 240 242 242 242 242 242 241
281 279 279 279 279 276 274 272 271 270 267 265 264 263 262 262 261 260 260 259 257 254 253 253 253 252 251 249 247 246 245 243 242 239 237 236 236 236 237 237 238 238 239 241 243 242 242 241 241
281 280 280 281 279 275 273 272 270 269 267 266 265 264 262 263 262 262 261 260 257 254 253 253 253 252 250 248 246 245 243 241 241 238 236 235 235 235 236 236 237 237 238 240 242 243 242 241 242
284 283 282 281 278 274 273 272 270 270 268 267 265 264 263 263 263 262 262 260 256 254 253 253 252 250 248 246 245 245 244 241 239 238 237 236 235 235 235 236 237 237 238 240 242 243 243 242 242
285 285 284 282 278 275 273 271 269 269 267 267 265 263 263 264 263 262 262 260 256 253 252 251 250 248 247 245 245 244 243 241 239 238 238 237 235 234 235 236 236 237 238 240 242 243 244 243 242
286 286 285 283 280 276 273 271 270 269 267 267 265 264 263 263 262 262 261 261 257 253 252 251 250 248 247 246 245 244 244 241 238 238 237 236 235 234 234 236 236 238 239 241 243 243 244 243 243
287 288 287 285 281 279 277 272 270 269 267 265 264 264 264 264 263 261 261 259 255 252 251 250 250 249 247 246 245 244 243 240 238 237 236 235 235 235 235 236 237 237 239 241 242 243 244 242 242
289 289 287 285 283 283 281 276 269 267 265 265 265 265 266 265 264 261 260 258 254 251 251 250 249 247 246 245 244 244 243 240 239 237 237 236 235 235 235 236 238 239 239 240 242 242 242 242 243
289 289 287 285 284 284 283 278 271 267 266 266 266 267 267 264 263 261 260 258 254 253 252 251 249 247 245 244 243 244 243 241 239 237 236 236 236 236 236 237 237 239 239 240 241 241 242 242 243
289 288 286 285 285 284 282 280 275 269 268 269 269 268 267 264 262 260 258 256 253 254 252 251 249 248 246 245 244 244 243 241 239 237 237 237 237 237 237 237 237 239 240 241 241 242 242 242 243
290 288 287 287 286 285 282 280 277 273 271 272 271 268 265 262 261 259 258 255 255 253 252 251 249 248 246 246 245 245 242 241 240 239 238 238 238 237 238 239 239 239 241 242 242 242 243 243 243
291 289 289 289 287 286 283 280 279 276 274 276 273 268 265 262 260 258 257 257 257 253 254 253 250 247 245 245 244 244 243 241 241 241 239 240 239 238 239 240 241 240 242 243 243 243 244 244 244
292 291 290 290 287 286 284 281 279 278 275 278 277 271 265 262 261 259 259 259 257 255 254 253 251 247 245 245 245 244 244 242 241 241 241 240 240 240 239 240 240 240 241 242 243 242 244 244 244
291 292 291 290 289 287 284 281 280 279 278 277 279 272 266 260 259 261 260 260 258 256 254 255 253 249 245 245 245 244 243 243 243 243 244 243 242 242 241 241 241 241 241 242 243 243 244 245 244
290 290 290 289 287 286 284 280 279 281 279 279 278 274 269 262 262 263 262 261 260 258 256 254 253 251 248 246 245 245 244 244 243 244 244 245 243 243 241 241 242 242 242 243 243 244 245 245 245
288 289 289 288 286 283 282 280 279 280 279 280 279 274 268 264 267 267 265 262 260 259 258 256 255 253 251 248 247 245 244 246 245 245 245 245 243 242 240 241 242 242 242 243 242 243 244 244 245
Height
5830 5830 5831 5832 5833 5833 5833 5834 5834 5834 5834 5834 5835 5835 5836 5837 5839 5841 5841 5840 5840 5841 5841 5842 5842 5843 5844 5844 5845 5846 5846 5847 5848 5849 5850 5851 5851 5852 5852 5853 5854 5854 5854 5855 5855 5855 5855 5855 5856
5826 5827 5828 5828 5828 5828 5830 5830 5830 5830 5830 5831 5831 5832 5832 5833 5834 5835 5835 5836 5836 5837 5838 5838 5839 5840 5840 5841 5842 5843 5844 5845 5846 5847 5848 5848 5849 5850 5851 5851 5852 5852 5853 5853 5854 5854 5854 5855 5855
5822 5823 5824 5823 5823 5824 5826 5826 5826 5826 5826 5826 5827 5827 5828 5828 5829 5830 5831 5831 5832 5833 5833 5834 5835 5836 5836 5837 5839 5840 5841 5842 5843 5844 5845 5846 5847 5848 5848 5849 5850 5850 5851 5852 5852 5853 5853 5854 5854
5818 5819 5819 5819 5819 5820 5820 5821 5820 5820 5821 5821 5821 5822 5823 5824 5824 5825 5825 5826 5827 5828 5829 5829 5830 5831 5832 5833 5835 5836 5837 5838 5839 5840 5842 5843 5844 5845 5846 5847 5847 5848 5849 5850 5850 5851 5852 5852 5853
5813 5813 5814 5813 5814 5814 5814 5815 5815 5815 5815 5815 5816 5817 5817 5818 5818 5819 5820 5821 5822 5822 5823 5824 5825 5826 5827 5828 5830 5831 5833 5834 5835 5836 5838 5839 5840 5842 5843 5844 5845 5846 5846 5847 5848 5849 5850 5850 5851
5808 5808 5808 5808 5809 5809 5808 5808 5808 5809 5809 5809 5810 5811 5811 5812 5813 5813 5814 5815 5815 5816 5816 5817 5818 5820 5821 5823 5824 5826 5828 5829 5831 5832 5834 5835 5837 5838 5839 5840 5841 5842 5844 5845 5846 5846 5847 5848 5849
5803 5802 5802 5802 5802 5802 5802 5801 5801 5802 5802 5803 5803 5804 5805 5805 5806 5807 5807 5808 5808 5809 5810 5810 5811 5813 5815 5816 5818 5819 5821 5823 5825 5827 5829 5831 5833 5834 5836 5837 5838 5839 5840 5841 5842 5843 5844 5845 5846
5796 5796 5795 5795 5795 5795 5795 5794 5794 5794 5795 5795 5796 5796 5798 5798 5798 5800 5801 5801 5801 5802 5802 5803 5804 5805 5807 5809 5811 5812 5815 5817 5819 5821 5824 5826 5828 5830 5831 5833 5834 5835 5837 5838 5839 5840 5841 5842 5843
5789 5789 5788 5788 5787 5787 5787 5786 5786 5786 5787 5787 5787 5788 5789 5790 5790 5792 5793 5793 5794 5794 5795 5796 5797 5798 5800 5802 5803 5805 5808 5810 5813 5815 5817 5820 5822 5824 5826 5828 5830 5831 5832 5834 5835 5836 5838 5839 5840
5781 5781 5781 5780 5779 5778 5778 5777 5777 5777 5778 5778 5778 5779 5780 5781 5782 5783 5784 5785 5786 5787 5787 5788 5789 5790 5792 5794 5796 5798 5800 5802 5805 5808 5811 5813 5816 5818 5821 5823 5825 5827 5828 5829 5831 5832 5834 5835 5836
5773 5773 5772 5770 5769 5768 5768 5767 5767 5767 5768 5769 5769 5770 5771 5772 5773 5774 5775 5776 5777 5778 5779 5780 5781 5782 5784 5786 5788 5790 5792 5794 5797 5800 5803 5806 5809 5812 5815 5817 5819 5821 5823 5825 5826 5828 5829 5831 5832
5764 5764 5762 5761 5759 5758 5757 5757 5757 5757 5758 5758 5759 5760 5761 5762 5763 5765 5765 5767 5768 5769 5770 5771 5772 5774 5775 5777 5779 5781 5783 5786 5789 5792 5795 5798 5802 5805 5808 5811 5813 5815 5817 5819 5821 5823 5825 5826 5828
5755 5754 5753 5751 5750 5748 5747 5746 5746 5747 5747 5747 5748 5749 5751 5752 5753 5754 5755 5756 5757 5758 5760 5761 5763 5764 5766 5768 5770 5772 5774 5777 5779 5783 5786 5790 5794 5797 5801 5804 5806 5809 5811 5814 5816 5818 5820 5821 5823
5745 5744 5743 5741 5739 5738 5736 5736 5735 5737 5736 5736 5737 5738 5740 5741 5743 5744 5745 5745 5746 5748 5749 5751 5753 5755 5756 5758 5760 5762 5764 5767 5769 5773 5777 5781 5785 5789 5793 5796 5799 5802 5804 5807 5809 5812 5814 5816 5818
5734 5734 5733 5731 5729 5727 5725 5725 5725 5726 5725 5725 5726 5728 5729 5730 5731 5733 5733 5734 5735 5737 5739 5740 5742 5744 5746 5747 5749 5752 5754 5756 5759 5763 5767 5772 5776 5780 5784 5788 5791 5794 5797 5800 5802 5805 5807 5810 5812
5724 5722 5722 5721 5718 5716 5715 5715 5716 5714 5714 5714 5715 5716 5718 5719 5720 5722 5722 5722 5723 5725 5727 5729 5731 5733 5734 5736 5739 5741 5744 5746 5749 5753 5757 5762 5767 5771 5775 5779 5783 5786 5789 5792 5795 5797 5800 5802 5805
5713 5712 5711 5710 5707 5705 5703 5703 5705 5704 5703 5703 5704 5705 5707 5708 5709 5710 5711 5710 5712 5714 5716 5717 5719 5721 5723 5726 5728 5731 5733 5736 5739 5743 5747 5751 5756 5761 5766 5770 5774 5778 5781 5784 5787 5790 5792 5795 5798
5704 5701 5700 5698 5696 5693 5692 5692 5694 5693 5692 5693 5693 5694 5695 5696 5698 5699 5699 5699 5700 5702 5704 5706 5708 5710 5712 5715 5718 5721 5723 5725 5729 5733 5737 5742 5747 5752 5756 5761 5765 5769 5772 5776 5779 5782 5785 5787 5790
5693 5691 5689 5687 5685 5682 5681 5681 5682 5682 5681 5682 5682 5683 5684 5685 5686 5687 5687 5687 5688 5690 5692 5695 5697 5699 5702 5705 5708 5710 5713 5715 5719 5723 5727 5732 5737 5742 5746 5751 5755 5759 5763 5767 5770 5773 5776 5779 5782
5684 5681 5679 5677 5674 5671 5670 5671 5671 5671 5671 5671 5672 5672 5673 5674 5674 5675 5675 5675 5676 5678 5681 5683 5686 5688 5691 5694 5697 5700 5702 5705 5709 5712 5717 5721 5727 5731 5736 5741 5745 5750 5754 5757 5760 5764 5767 5770 5773
5675 5672 5669 5667 5664 5662 5660 5661 5662 5661 5660 5661 5661 5661 5661 5662 5662 5662 5663 5663 5664 5666 5669 5672 5674 5677 5680 5682 5685 5688 5690 5693 5698 5702 5706 5711 5716 5721 5726 5731 5735 5739 5743 5747 5750 5754 5757 5761 5764
5666 5663 5660 5657 5654 5653 5651 5649 5653 5651 5651 5651 5651 5650 5651 5651 5650 5651 5651 5651 5653 5655 5657 5660 5663 5665 5668 5671 5674 5676 5679 5683 5687 5692 5696 5700 5705 5711 5715 5720 5725 5729 5733 5736 5740 5744 5747 5751 5754
5657 5654 5651 5648 5645 5644 5642 5639 5643 5641 5641 5641 5640 5640 5640 5640 5640 5640 5640 5640 5642 5644 5646 5648 5651 5654 5656 5659 5662 5665 5668 5671 5676 5680 5685 5689 5694 5699 5704 5709 5713 5718 5722 5726 5729 5733 5737 5740 5744
5648 5645 5642 5639 5636 5635 5634 5631 5632 5631 5630 5630 5630 5629 5629 5629 5629 5629 5628 5629 5631 5633 5634 5637 5640 5642 5645 5647 5650 5654 5657 5660 5664 5669 5673 5678 5683 5688 5692 5697 5702 5706 5710 5714 5718 5722 5726 5730 5733
5640 5637 5633 5630 5627 5626 5625 5622 5623 5621 5620 5620 5619 5619 5618 5618 5618 5618 5618 5620 5621 5622 5623 5626 5628 5631 5633 5636 5639 5642 5645 5649 5653 5657 5661 5666 5670 5675 5680 5684 5689 5694 5699 5702 5706 5711 5715 5719 5722
5631 5628 5625 5621 5618 5617 5616 5614 5614 5612 5611 5610 5609 5609 5608 5608 5608 5609 5610 5610 5611 5612 5613 5615 5617 5620 5622 5625 5628 5631 5634 5637 5641 5645 5649 5654 5658 5663 5667 5671 5676 5681 5686 5690 5694 5699 5703 5707 5711
5622 5619 5617 5614 5610 5608 5607 5606 5605 5603 5602 5600 5599 5599 5598 5599 5599 5600 5600 5601 5601 5602 5603 5604 5606 5608 5611 5614 5617 5620 5623 5626 5629 5633 5636 5641 5645 5650 5654 5659 5663 5667 5672 5677 5681 5686 5691 5695 5699
5615 5611 5609 5605 5601 5598 5598 5597 5597 5594 5593 5592 5591 5589 5589 5589 5590 5590 5590 5591 5591 5592 5593 5594 5595 5597 5600 5603 5606 5609 5612 5615 5618 5621 5625 5628 5633 5637 5641 5646 5650 5654 5659 5663 5669 5674 5678 5682 5687
5607 5604 5600 5597 5594 5591 5588 5592 5589 5586 5584 5583 5582 5580 5580 5580 5580 5580 5581 5581 5582 5582 5583 5584 5585 5587 5589 5592 5595 5597 5600 5603 5606 5609 5612 5616 5620 5624 5628 5632 5637 5641 5646 5650 5655 5660 5665 5670 5674
5597 5595 5592 5590 5586 5583 5580 5584 5580 5578 5576 5574 5573 5571 5571 5571 5571 5571 5571 5571 5572 5572 5573 5574 5575 5576 5578 5580 5583 5586 5588 5591 5594 5597 5600 5604 5607 5611 5615 5619 5623 5628 5632 5637 5642 5647 5652 5657 5662